Regional Weather Roundup
Issued by NWS Charleston, WV

Home | Current Version | Previous Version | Text Only | Print | Product List | Glossary On
Versions: 1 2 3 4 5 6 7 8 9 10 11 12 13 14 15 16 17 18 19 20 21 22 23 24 25 26 27 28 29 30 31 32 33 34 35 36 37 38 39 40 41 42 43 44 45 46 47 48
000
ASUS41 KRLX 012110
RWRRLX
CRWRWRRLX ALL
West Virginia Regional Weather Roundup
National Weather Service Charleston WV
Issued by National Weather Service Pittsburgh PA
400 PM EST WED MAR 01 2017

Note: "fair" indicates few or no clouds below 12,000 feet with no
significant weather and/or obstructions to visibility.

WVZ003-012200-
Northern Panhandle of West Virginia

CITY           SKY/WX    TMP DP  RH WIND       PRES   REMARKS
WHEELING       CLOUDY    60  49  66 SW18G30   29.53S
$$

WVZ009-012200-
Northwest West Virginia

CITY           SKY/WX    TMP DP  RH WIND       PRES   REMARKS
PARKERSBURG    MOSUNNY   63  52  67 SW14G29   29.61F
$$

WVZ006-012200-
Western West Virginia

CITY           SKY/WX    TMP DP  RH WIND       PRES   REMARKS
HUNTINGTON     PTSUNNY   65  54  67 SW12G20   29.63F
$$

WVZ015-012200-
West Central West Virginia

CITY           SKY/WX    TMP DP  RH WIND       PRES   REMARKS
CHARLESTON     PTSUNNY   63  51  65 SW10G22   29.66S
$$

WVZ031-012200-
North Central West Virginia

CITY           SKY/WX    TMP DP  RH WIND       PRES   REMARKS
CLARKSBURG     CLOUDY    59  50  72 SW20G28   29.60S
MORGANTOWN     CLOUDY    59  48  67 SW13G24   29.58F
$$

WVZ035-042-012200-
South Central West Virginia

CITY           SKY/WX    TMP DP  RH WIND       PRES   REMARKS
BECKLEY        CLOUDY    54  50  86 SW10G21   29.73S
BLUEFIELD      RAIN      53  48  83 SW17G40   29.78F
$$

WVZ045-012200-
Greenbrier Valley of West Virginia

CITY           SKY/WX    TMP DP  RH WIND       PRES   REMARKS
LEWISBURG      LGT RAIN  52  50  90 SW14G28   29.76F
$$

WVZ047-012200-
Northern Mountains of West Virginia

CITY           SKY/WX    TMP DP  RH WIND       PRES   REMARKS
ELKINS         CLOUDY    62  46  55 S13G22    29.64S
$$

WVZ052-012200-
Eastern Panhandle of West Virginia

CITY           SKY/WX    TMP DP  RH WIND       PRES   REMARKS
MARTINSBURG    CLOUDY    66  46  48 S13       29.55S
PETERSBURG     PTSUNNY   67  49  53 S15G25    29.60R
$$




USA.gov is the U.S. government's official web portal to all federal, state and local government web resources and services.